www.cux-wetter.de
Wetterdaten: Donnerstag, 23.08.2007
Datum Zeit Temp. A. Feuchte A. Luftdruck Regen Wind Richtung Richtung Sonnenschein Solar Taupunkt Windchill Windben
23.08.2007 00:03 16,9 C 94 % 1010,5 hPa 0,0 l/m 0,6 km/h (0 Bft) O 80 0 min 0 W/m 15,9 C 16,9 C 0,6 km/h (0 Bft)
23.08.2007 00:08 16,9 C 94 % 1010,5 hPa 0,0 l/m 0,3 km/h (0 Bft) O-SO 105 0 min 0 W/m 15,9 C 16,9 C 0,3 km/h (0 Bft)
23.08.2007 00:13 16,9 C 94 % 1010,5 hPa 0,0 l/m 4,3 km/h (1 Bft) O 100 0 min 0 W/m 15,9 C 16,9 C 4,3 km/h (1 Bft)
23.08.2007 00:18 16,9 C 94 % 1010,5 hPa 0,0 l/m 0,0 km/h (0 Bft) O 80 0 min 0 W/m 15,9 C 16,9 C 0,0 km/h (0 Bft)
23.08.2007 00:23 16,9 C 94 % 1010,5 hPa 0,0 l/m 0,0 km/h (0 Bft) O 80 0 min 0 W/m 15,9 C 16,9 C 0,0 km/h (0 Bft)
23.08.2007 00:28 16,9 C 94 % 1010,5 hPa 0,0 l/m 0,0 km/h (0 Bft) O 80 0 min 0 W/m 15,9 C 16,9 C 0,0 km/h (0 Bft)
23.08.2007 00:33 16,9 C 95 % 1010,5 hPa 0,0 l/m 0,0 km/h (0 Bft) O 80 0 min 0 W/m 16,1 C 16,9 C 0,0 km/h (0 Bft)
23.08.2007 00:38 16,9 C 95 % 1010,5 hPa 0,0 l/m 0,1 km/h (0 Bft) O-SO 120 0 min 0 W/m 16,1 C 16,9 C 0,1 km/h (0 Bft)
23.08.2007 00:43 16,9 C 95 % 1010,5 hPa 0,0 l/m 0,5 km/h (0 Bft) SO 135 0 min 0 W/m 16,1 C 16,9 C 0,5 km/h (0 Bft)
23.08.2007 00:48 16,9 C 95 % 1010,5 hPa 0,0 l/m 3,9 km/h (1 Bft) SO 135 0 min 0 W/m 16,1 C 16,9 C 3,9 km/h (1 Bft)
23.08.2007 00:53 17,0 C 95 % 1010,5 hPa 0,0 l/m 6,2 km/h (2 Bft) S-SO 150 0 min 0 W/m 16,2 C 17,0 C 6,2 km/h (2 Bft)
23.08.2007 00:58 17,0 C 95 % 1010,5 hPa 0,0 l/m 4,5 km/h (1 Bft) O-SO 120 0 min 0 W/m 16,2 C 17,0 C 4,5 km/h (1 Bft)
23.08.2007 01:03 16,9 C 95 % 1010,5 hPa 0,0 l/m 1,1 km/h (1 Bft) O-SO 120 0 min 0 W/m 16,1 C 16,9 C 1,1 km/h (1 Bft)
23.08.2007 01:07 16,9 C 95 % 1010,5 hPa 0,0 l/m 0,3 km/h (0 Bft) SO 145 0 min 0 W/m 16,1 C 16,9 C 0,3 km/h (0 Bft)
23.08.2007 01:13 16,9 C 95 % 1010,5 hPa 0,0 l/m 0,4 km/h (0 Bft) O-SO 120 0 min 0 W/m 16,1 C 16,9 C 0,4 km/h (0 Bft)
23.08.2007 01:18 16,9 C 95 % 1010,5 hPa 0,0 l/m 0,0 km/h (0 Bft) SO 125 0 min 0 W/m 16,1 C 16,9 C 0,0 km/h (0 Bft)
23.08.2007 01:23 16,8 C 95 % 1010,5 hPa 0,0 l/m 3,3 km/h (1 Bft) O 90 0 min 0 W/m 16,0 C 16,8 C 3,3 km/h (1 Bft)
23.08.2007 01:28 16,8 C 95 % 1010,5 hPa 0,0 l/m 7,0 km/h (2 Bft) O-SO 110 0 min 0 W/m 16,0 C 16,5 C 7,0 km/h (2 Bft)
23.08.2007 01:33 16,8 C 95 % 1010,5 hPa 0,0 l/m 3,4 km/h (1 Bft) SO 125 0 min 0 W/m 16,0 C 16,8 C 3,4 km/h (1 Bft)
23.08.2007 01:38 16,7 C 95 % 1010,5 hPa 0,0 l/m 0,7 km/h (0 Bft) O 85 0 min 0 W/m 15,9 C 16,7 C 0,7 km/h (0 Bft)
23.08.2007 01:43 16,6 C 95 % 1010,5 hPa 0,0 l/m 0,4 km/h (0 Bft) O-SO 105 0 min 0 W/m 15,8 C 16,6 C 0,4 km/h (0 Bft)
23.08.2007 01:48 16,7 C 95 % 1010,5 hPa 0,0 l/m 4,8 km/h (1 Bft) S 170 0 min 0 W/m 15,9 C 16,7 C 4,8 km/h (1 Bft)
23.08.2007 01:53 16,6 C 95 % 1010,5 hPa 0,0 l/m 6,1 km/h (2 Bft) S-SO 165 0 min 0 W/m 15,8 C 16,6 C 6,1 km/h (2 Bft)
23.08.2007 01:58 16,6 C 95 % 1010,5 hPa 0,0 l/m 5,0 km/h (1 Bft) O 95 0 min 0 W/m 15,8 C 16,6 C 5,0 km/h (1 Bft)
23.08.2007 02:03 16,5 C 95 % 1010,5 hPa 0,0 l/m 6,4 km/h (2 Bft) SO 125 0 min 0 W/m 15,7 C 16,5 C 6,4 km/h (2 Bft)
23.08.2007 02:08 16,4 C 95 % 1010,5 hPa 0,0 l/m 0,9 km/h (0 Bft) S-SO 150 0 min 0 W/m 15,6 C 16,4 C 0,9 km/h (0 Bft)
23.08.2007 02:13 16,4 C 95 % 1010,5 hPa 0,0 l/m 2,6 km/h (1 Bft) SO 140 0 min 0 W/m 15,6 C 16,4 C 2,6 km/h (1 Bft)
23.08.2007 02:18 16,3 C 95 % 1010,5 hPa 0,0 l/m 4,8 km/h (1 Bft) O-SO 115 0 min 0 W/m 15,5 C 16,3 C 4,8 km/h (1 Bft)
23.08.2007 02:23 16,2 C 95 % 1010,5 hPa 0,0 l/m 5,9 km/h (2 Bft) SO 130 0 min 0 W/m 15,4 C 16,2 C 5,9 km/h (2 Bft)
23.08.2007 02:28 16,1 C 95 % 1010,5 hPa 0,0 l/m 4,5 km/h (1 Bft) O-SO 115 0 min 0 W/m 15,3 C 16,1 C 4,5 km/h (1 Bft)
23.08.2007 02:33 16,0 C 95 % 1010,5 hPa 0,0 l/m 1,2 km/h (1 Bft) O-SO 115 0 min 0 W/m 15,2 C 16,0 C 1,2 km/h (1 Bft)
23.08.2007 02:38 16,0 C 95 % 1010,5 hPa 0,0 l/m 1,2 km/h (1 Bft) O-SO 115 0 min 0 W/m 15,2 C 16,0 C 1,2 km/h (1 Bft)
23.08.2007 02:43 16,0 C 95 % 1010,5 hPa 0,0 l/m 5,5 km/h (2 Bft) SO 140 0 min 0 W/m 15,2 C 16,0 C 5,5 km/h (2 Bft)
23.08.2007 02:48 16,0 C 96 % 1010,5 hPa 0,0 l/m 8,3 km/h (2 Bft) SO 135 0 min 0 W/m 15,4 C 15,0 C 8,3 km/h (2 Bft)
23.08.2007 02:53 16,0 C 96 % 1010,5 hPa 0,0 l/m 6,1 km/h (2 Bft) SO 140 0 min 0 W/m 15,4 C 16,0 C 6,1 km/h (2 Bft)
23.08.2007 02:58 16,0 C 96 % 1010,5 hPa 0,0 l/m 5,0 km/h (1 Bft) SO 140 0 min 0 W/m 15,4 C 16,0 C 5,0 km/h (1 Bft)
23.08.2007 03:03 16,0 C 96 % 1010,5 hPa 0,0 l/m 5,0 km/h (1 Bft) SO 140 0 min 0 W/m 15,4 C 16,0 C 5,0 km/h (1 Bft)
23.08.2007 03:08 16,0 C 96 % 1010,5 hPa 0,0 l/m 0,9 km/h (0 Bft) O-SO 115 0 min 0 W/m 15,4 C 16,0 C 0,9 km/h (0 Bft)
23.08.2007 03:13 15,9 C 96 % 1010,5 hPa 0,0 l/m 5,7 km/h (2 Bft) O-SO 115 0 min 0 W/m 15,3 C 15,9 C 5,7 km/h (2 Bft)
23.08.2007 03:18 16,0 C 96 % 1010,5 hPa 0,0 l/m 4,9 km/h (1 Bft) SO 125 0 min 0 W/m 15,4 C 16,0 C 4,9 km/h (1 Bft)
23.08.2007 03:23 16,0 C 96 % 1010,5 hPa 0,0 l/m 5,2 km/h (1 Bft) S-SO 155 0 min 0 W/m 15,4 C 16,0 C 5,2 km/h (1 Bft)
23.08.2007 03:28 16,0 C 96 % 1010,5 hPa 0,0 l/m 1,9 km/h (1 Bft) SO 140 0 min 0 W/m 15,4 C 16,0 C 1,9 km/h (1 Bft)
23.08.2007 03:33 16,0 C 96 % 1010,5 hPa 0,0 l/m 7,8 km/h (2 Bft) S-SO 160 0 min 0 W/m 15,4 C 15,3 C 7,8 km/h (2 Bft)
23.08.2007 03:38 16,0 C 96 % 1010,5 hPa 0,0 l/m 9,0 km/h (2 Bft) S 170 0 min 0 W/m 15,4 C 14,7 C 9,0 km/h (2 Bft)
23.08.2007 03:43 16,0 C 96 % 1010,5 hPa 0,0 l/m 10,5 km/h (2 Bft) S 170 0 min 0 W/m 15,4 C 14,0 C 10,5 km/h (2 Bft)
23.08.2007 03:48 16,0 C 96 % 1010,5 hPa 0,0 l/m 9,8 km/h (2 Bft) S-SO 160 0 min 0 W/m 15,4 C 14,3 C 9,8 km/h (2 Bft)
23.08.2007 03:53 16,0 C 96 % 1010,5 hPa 0,0 l/m 10,0 km/h (2 Bft) S 175 0 min 0 W/m 15,4 C 14,2 C 10,0 km/h (2 Bft)
23.08.2007 03:58 16,0 C 96 % 1010,5 hPa 0,0 l/m 11,3 km/h (2 Bft) S-SO 160 0 min 0 W/m 15,4 C 13,7 C 11,3 km/h (2 Bft)
23.08.2007 04:03 16,0 C 96 % 1010,5 hPa 0,0 l/m 8,9 km/h (2 Bft) S-SO 160 0 min 0 W/m 15,4 C 14,7 C 8,9 km/h (2 Bft)
23.08.2007 04:08 15,9 C 96 % 1010,5 hPa 0,0 l/m 7,9 km/h (2 Bft) S-SO 165 0 min 0 W/m 15,3 C 15,1 C 7,9 km/h (2 Bft)
23.08.2007 04:13 15,9 C 96 % 1010,5 hPa 0,0 l/m 6,5 km/h (2 Bft) SO 140 0 min 0 W/m 15,3 C 15,9 C 6,5 km/h (2 Bft)
23.08.2007 04:18 15,9 C 96 % 1010,5 hPa 0,0 l/m 4,3 km/h (1 Bft) S-SO 165 0 min 0 W/m 15,3 C 15,9 C 4,3 km/h (1 Bft)
23.08.2007 04:23 15,9 C 96 % 1010,5 hPa 0,0 l/m 2,1 km/h (1 Bft) SO 145 0 min 0 W/m 15,3 C 15,9 C 2,1 km/h (1 Bft)
23.08.2007 04:28 15,9 C 96 % 1010,5 hPa 0,0 l/m 8,0 km/h (2 Bft) SO 145 0 min 0 W/m 15,3 C 15,0 C 8,0 km/h (2 Bft)
23.08.2007 04:33 15,9 C 96 % 1010,5 hPa 0,0 l/m 8,6 km/h (2 Bft) S-SO 150 0 min 0 W/m 15,3 C 14,8 C 8,6 km/h (2 Bft)
23.08.2007 04:38 15,8 C 96 % 1010,5 hPa 0,0 l/m 8,3 km/h (2 Bft) SO 145 0 min 0 W/m 15,2 C 14,8 C 8,3 km/h (2 Bft)
23.08.2007 04:43 15,8 C 96 % 1010,5 hPa 0,0 l/m 7,2 km/h (2 Bft) SO 145 0 min 0 W/m 15,2 C 15,4 C 7,2 km/h (2 Bft)
23.08.2007 04:48 15,8 C 96 % 1010,5 hPa 0,0 l/m 6,8 km/h (2 Bft) S-SO 160 0 min 0 W/m 15,2 C 15,6 C 6,8 km/h (2 Bft)
23.08.2007 04:53 15,9 C 96 % 1010,5 hPa 0,0 l/m 8,2 km/h (2 Bft) S-SO 160 0 min 0 W/m 15,3 C 14,9 C 8,2 km/h (2 Bft)
23.08.2007 04:58 15,9 C 96 % 1010,5 hPa 0,0 l/m 7,7 km/h (2 Bft) S-SO 160 0 min 0 W/m 15,3 C 15,2 C 7,7 km/h (2 Bft)
23.08.2007 05:03 15,9 C 96 % 1010,5 hPa 0,0 l/m 2,6 km/h (1 Bft) SO 145 0 min 0 W/m 15,3 C 15,9 C 2,6 km/h (1 Bft)
23.08.2007 05:08 15,9 C 96 % 1011,5 hPa 0,0 l/m 0,7 km/h (0 Bft) O-SO 110 0 min 0 W/m 15,3 C 15,9 C 0,7 km/h (0 Bft)
23.08.2007 05:13 15,9 C 96 % 1011,5 hPa 0,0 l/m 6,7 km/h (2 Bft) O-SO 120 0 min 0 W/m 15,3 C 15,7 C 6,7 km/h (2 Bft)
23.08.2007 05:18 15,9 C 96 % 1011,5 hPa 0,0 l/m 6,2 km/h (2 Bft) S-SO 150 0 min 0 W/m 15,3 C 15,9 C 6,2 km/h (2 Bft)
23.08.2007 05:23 16,0 C 96 % 1011,5 hPa 0,0 l/m 4,0 km/h (1 Bft) S-SO 150 0 min 0 W/m 15,4 C 16,0 C 4,0 km/h (1 Bft)
23.08.2007 05:28 16,0 C 96 % 1011,5 hPa 0,0 l/m 2,8 km/h (1 Bft) S-SO 150 0 min 0 W/m 15,4 C 16,0 C 2,8 km/h (1 Bft)
23.08.2007 05:33 16,0 C 96 % 1011,5 hPa 0,0 l/m 4,5 km/h (1 Bft) S-SO 160 0 min 0 W/m 15,4 C 16,0 C 4,5 km/h (1 Bft)
23.08.2007 05:38 16,0 C 96 % 1011,5 hPa 0,0 l/m 8,6 km/h (2 Bft) SO 145 0 min 0 W/m 15,4 C 14,9 C 8,6 km/h (2 Bft)
23.08.2007 05:43 16,2 C 97 % 1011,5 hPa 0,0 l/m 4,9 km/h (1 Bft) SO 135 0 min 0 W/m 15,7 C 16,2 C 4,9 km/h (1 Bft)
23.08.2007 05:48 16,3 C 97 % 1011,5 hPa 0,0 l/m 3,6 km/h (1 Bft) S-SO 150 0 min 0 W/m 15,8 C 16,3 C 3,6 km/h (1 Bft)
23.08.2007 05:53 16,4 C 97 % 1011,5 hPa 0,0 l/m 1,6 km/h (1 Bft) SO 140 0 min 0 W/m 15,9 C 16,4 C 1,6 km/h (1 Bft)
23.08.2007 05:58 16,4 C 97 % 1011,5 hPa 0,0 l/m 6,9 km/h (2 Bft) SO 135 0 min 0 W/m 15,9 C 16,1 C 6,9 km/h (2 Bft)
23.08.2007 06:03 16,4 C 97 % 1011,5 hPa 0,0 l/m 6,3 km/h (2 Bft) S-SO 160 0 min 0 W/m 15,9 C 16,4 C 6,3 km/h (2 Bft)
23.08.2007 06:08 16,4 C 97 % 1011,5 hPa 0,0 l/m 7,1 km/h (2 Bft) O-SO 115 0 min 0 W/m 15,9 C 16,0 C 7,1 km/h (2 Bft)
23.08.2007 06:13 16,4 C 97 % 1011,5 hPa 0,0 l/m 7,0 km/h (2 Bft) SO 130 0 min 0 W/m 15,9 C 16,1 C 7,0 km/h (2 Bft)
23.08.2007 06:18 16,3 C 97 % 1011,5 hPa 0,0 l/m 7,0 km/h (2 Bft) SO 130 0 min 0 W/m 15,8 C 16,0 C 7,0 km/h (2 Bft)
23.08.2007 06:23 16,3 C 97 % 1011,5 hPa 0,0 l/m 6,1 km/h (2 Bft) O-SO 120 0 min 0 W/m 15,8 C 16,3 C 6,1 km/h (2 Bft)
23.08.2007 06:28 16,3 C 97 % 1011,5 hPa 0,0 l/m 2,4 km/h (1 Bft) S-SO 150 0 min 0 W/m 15,8 C 16,3 C 2,4 km/h (1 Bft)
23.08.2007 06:33 16,3 C 97 % 1011,5 hPa 0,0 l/m 7,0 km/h (2 Bft) S-SO 160 0 min 0 W/m 15,8 C 16,0 C 7,0 km/h (2 Bft)
23.08.2007 06:38 16,3 C 97 % 1011,5 hPa 0,0 l/m 1,2 km/h (1 Bft) S 180 0 min 0 W/m 15,8 C 16,3 C 1,2 km/h (1 Bft)
23.08.2007 06:43 16,2 C 97 % 1011,5 hPa 0,0 l/m 2,2 km/h (1 Bft) S 170 0 min 0 W/m 15,7 C 16,2 C 2,2 km/h (1 Bft)
23.08.2007 06:48 16,2 C 97 % 1011,5 hPa 0,0 l/m 5,1 km/h (1 Bft) SO 145 0 min 0 W/m 15,7 C 16,2 C 5,1 km/h (1 Bft)
23.08.2007 06:53 16,2 C 97 % 1011,5 hPa 0,0 l/m 6,1 km/h (2 Bft) SO 145 0 min 0 W/m 15,7 C 16,2 C 6,1 km/h (2 Bft)
23.08.2007 06:58 16,2 C 97 % 1011,5 hPa 0,0 l/m 8,1 km/h (2 Bft) S-SO 160 0 min 0 W/m 15,7 C 15,3 C 8,1 km/h (2 Bft)
23.08.2007 07:03 16,2 C 97 % 1011,5 hPa 0,0 l/m 7,9 km/h (2 Bft) S 175 0 min 0 W/m 15,7 C 15,4 C 7,9 km/h (2 Bft)
23.08.2007 07:08 16,2 C 97 % 1011,5 hPa 0,0 l/m 7,9 km/h (2 Bft) S 175 0 min 0 W/m 15,7 C 15,4 C 7,9 km/h (2 Bft)
23.08.2007 07:13 16,2 C 97 % 1011,5 hPa 0,0 l/m 4,5 km/h (1 Bft) SO 145 0 min 0 W/m 15,7 C 16,2 C 4,5 km/h (1 Bft)
23.08.2007 07:18 16,0 C 97 % 1011,5 hPa 0,0 l/m 4,3 km/h (1 Bft) S 170 0 min 0 W/m 15,5 C 16,0 C 4,3 km/h (1 Bft)
23.08.2007 07:23 16,0 C 97 % 1011,5 hPa 0,0 l/m 4,6 km/h (1 Bft) SO 140 0 min 0 W/m 15,5 C 16,0 C 4,6 km/h (1 Bft)
23.08.2007 07:28 16,0 C 97 % 1012,5 hPa 0,0 l/m 0,3 km/h (0 Bft) SO 130 0 min 0 W/m 15,5 C 16,0 C 0,3 km/h (0 Bft)
23.08.2007 07:33 16,0 C 97 % 1012,5 hPa 0,0 l/m 0,3 km/h (0 Bft) O 95 0 min 0 W/m 15,5 C 16,0 C 0,3 km/h (0 Bft)
23.08.2007 07:38 16,1 C 97 % 1012,5 hPa 0,0 l/m 0,0 km/h (0 Bft) O 85 0 min 0 W/m 15,6 C 16,1 C 0,0 km/h (0 Bft)
23.08.2007 07:43 16,1 C 97 % 1012,5 hPa 0,0 l/m 0,1 km/h (0 Bft) O 85 0 min 0 W/m 15,6 C 16,1 C 0,1 km/h (0 Bft)
23.08.2007 07:48 16,3 C 97 % 1012,5 hPa 0,0 l/m 0,0 km/h (0 Bft) SO 135 0 min 0 W/m 15,8 C 16,3 C 0,0 km/h (0 Bft)
23.08.2007 07:53 16,4 C 97 % 1012,5 hPa 0,0 l/m 3,7 km/h (1 Bft) SO 125 0 min 0 W/m 15,9 C 16,4 C 3,7 km/h (1 Bft)
23.08.2007 07:58 16,4 C 97 % 1012,5 hPa 0,0 l/m 0,6 km/h (0 Bft) O-SO 120 0 min 0 W/m 15,9 C 16,4 C 0,6 km/h (0 Bft)
23.08.2007 08:03 16,5 C 97 % 1012,5 hPa 0,0 l/m 0,0 km/h (0 Bft) O-SO 115 0 min 0 W/m 16,0 C 16,5 C 0,0 km/h (0 Bft)
23.08.2007 08:08 16,5 C 97 % 1012,5 hPa 0,0 l/m 0,3 km/h (0 Bft) O-SO 120 0 min 0 W/m 16,0 C 16,5 C 0,3 km/h (0 Bft)
23.08.2007 08:13 16,6 C 97 % 1012,5 hPa 0,0 l/m 5,5 km/h (2 Bft) O-SO 120 0 min 0 W/m 16,1 C 16,6 C 5,5 km/h (2 Bft)
23.08.2007 08:18 16,8 C 97 % 1012,5 hPa 0,0 l/m 3,9 km/h (1 Bft) S-SO 155 0 min 0 W/m 16,3 C 16,8 C 3,9 km/h (1 Bft)
23.08.2007 08:23 16,8 C 97 % 1012,5 hPa 0,0 l/m 0,4 km/h (0 Bft) SO 140 0 min 0 W/m 16,3 C 16,8 C 0,4 km/h (0 Bft)
23.08.2007 08:28 17,0 C 97 % 1012,5 hPa 0,0 l/m 3,9 km/h (1 Bft) SO 140 0 min 0 W/m 16,5 C 17,0 C 3,9 km/h (1 Bft)
23.08.2007 08:33 17,0 C 97 % 1012,5 hPa 0,0 l/m 3,9 km/h (1 Bft) SO 140 0 min 0 W/m 16,5 C 17,0 C 3,9 km/h (1 Bft)
23.08.2007 08:38 17,2 C 97 % 1012,5 hPa 0,0 l/m 8,2 km/h (2 Bft) O-SO 110 0 min 0 W/m 16,7 C 16,3 C 8,2 km/h (2 Bft)
23.08.2007 08:43 17,3 C 97 % 1012,5 hPa 0,0 l/m 9,0 km/h (2 Bft) SO 125 0 min 0 W/m 16,8 C 16,1 C 9,0 km/h (2 Bft)
23.08.2007 08:48 17,6 C 97 % 1012,5 hPa 0,0 l/m 2,0 km/h (1 Bft) O 90 0 min 0 W/m 17,1 C 17,6 C 2,0 km/h (1 Bft)
23.08.2007 08:53 18,0 C 97 % 1012,5 hPa 0,0 l/m 5,0 km/h (1 Bft) O-NO 70 0 min 0 W/m 17,5 C 18,0 C 5,0 km/h (1 Bft)
23.08.2007 08:58 18,0 C 97 % 1012,5 hPa 0,0 l/m 5,3 km/h (1 Bft) SO 125 0 min 0 W/m 17,5 C 18,0 C 5,3 km/h (1 Bft)
23.08.2007 09:03 18,2 C 97 % 1012,5 hPa 0,0 l/m 7,9 km/h (2 Bft) SO 125 0 min 0 W/m 17,7 C 17,5 C 7,9 km/h (2 Bft)
23.08.2007 09:08 18,2 C 97 % 1012,5 hPa 0,0 l/m 4,1 km/h (1 Bft) O 100 0 min 0 W/m 17,7 C 18,2 C 4,1 km/h (1 Bft)
23.08.2007 09:13 18,2 C 97 % 1012,5 hPa 0,0 l/m 10,0 km/h (2 Bft) O 95 0 min 0 W/m 17,7 C 16,7 C 10,0 km/h (2 Bft)
23.08.2007 09:18 18,1 C 97 % 1012,5 hPa 0,0 l/m 7,6 km/h (2 Bft) SO 140 0 min 0 W/m 17,6 C 17,5 C 7,6 km/h (2 Bft)
23.08.2007 09:23 18,0 C 97 % 1012,5 hPa 0,0 l/m 10,3 km/h (2 Bft) SO 140 0 min 0 W/m 17,5 C 16,3 C 10,3 km/h (2 Bft)
23.08.2007 09:28 18,0 C 97 % 1012,5 hPa 0,0 l/m 9,2 km/h (2 Bft) O-SO 110 0 min 0 W/m 17,5 C 16,7 C 9,2 km/h (2 Bft)
23.08.2007 09:33 17,9 C 96 % 1012,5 hPa 0,0 l/m 13,1 km/h (3 Bft) SO 125 0 min 0 W/m 17,3 C 15,3 C 13,1 km/h (3 Bft)
23.08.2007 09:38 18,0 C 97 % 1013,5 hPa 0,0 l/m 13,1 km/h (3 Bft) SO 125 0 min 0 W/m 17,5 C 15,4 C 13,1 km/h (3 Bft)
23.08.2007 09:43 18,1 C 96 % 1013,5 hPa 0,0 l/m 7,8 km/h (2 Bft) SO 125 0 min 0 W/m 17,5 C 17,4 C 7,8 km/h (2 Bft)
23.08.2007 09:48 18,1 C 96 % 1013,5 hPa 0,0 l/m 13,5 km/h (3 Bft) O-SO 120 0 min 0 W/m 17,5 C 15,4 C 13,5 km/h (3 Bft)
23.08.2007 09:53 18,1 C 96 % 1013,5 hPa 0,0 l/m 9,0 km/h (2 Bft) SO 130 0 min 0 W/m 17,5 C 16,9 C 9,0 km/h (2 Bft)
23.08.2007 09:58 18,2 C 96 % 1013,5 hPa 0,0 l/m 9,2 km/h (2 Bft) SO 145 0 min 0 W/m 17,6 C 17,0 C 9,2 km/h (2 Bft)
23.08.2007 10:03 18,1 C 96 % 1013,5 hPa 0,0 l/m 12,8 km/h (3 Bft) O-SO 120 0 min 0 W/m 17,5 C 15,6 C 12,8 km/h (3 Bft)
23.08.2007 10:08 18,2 C 96 % 1013,5 hPa 0,0 l/m 9,6 km/h (2 Bft) S-SO 155 0 min 0 W/m 17,6 C 16,8 C 9,6 km/h (2 Bft)
23.08.2007 10:13 18,4 C 95 % 1013,5 hPa 0,0 l/m 13,4 km/h (3 Bft) SO 135 0 min 0 W/m 17,6 C 15,8 C 13,4 km/h (3 Bft)
23.08.2007 10:18 18,5 C 95 % 1013,5 hPa 0,0 l/m 13,4 km/h (3 Bft) SO 135 0 min 0 W/m 17,7 C 15,9 C 13,4 km/h (3 Bft)
23.08.2007 10:23 18,6 C 95 % 1013,5 hPa 0,0 l/m 11,4 km/h (2 Bft) O-SO 120 0 min 0 W/m 17,8 C 16,6 C 11,4 km/h (2 Bft)
23.08.2007 10:28 18,7 C 95 % 1013,5 hPa 0,0 l/m 9,8 km/h (2 Bft) SO 135 0 min 0 W/m 17,9 C 17,3 C 9,8 km/h (2 Bft)
23.08.2007 10:33 18,8 C 95 % 1013,5 hPa 0,0 l/m 9,8 km/h (2 Bft) SO 135 0 min 0 W/m 18,0 C 17,4 C 9,8 km/h (2 Bft)
23.08.2007 10:38 18,6 C 94 % 1013,5 hPa 0,0 l/m 7,6 km/h (2 Bft) O-SO 115 0 min 0 W/m 17,6 C 18,1 C 7,6 km/h (2 Bft)
23.08.2007 10:43 18,4 C 93 % 1013,5 hPa 0,0 l/m 10,0 km/h (2 Bft) S-SO 150 0 min 0 W/m 17,2 C 16,9 C 10,0 km/h (2 Bft)
23.08.2007 10:48 18,2 C 93 % 1013,5 hPa 0,0 l/m 11,1 km/h (2 Bft) S 180 0 min 0 W/m 17,0 C 16,3 C 11,1 km/h (2 Bft)
23.08.2007 10:53 18,1 C 93 % 1013,5 hPa 0,0 l/m 11,6 km/h (2 Bft) S 175 0 min 0 W/m 16,9 C 16,0 C 11,6 km/h (2 Bft)
23.08.2007 10:58 18,1 C 93 % 1013,5 hPa 0,0 l/m 9,4 km/h (2 Bft) S 170 0 min 0 W/m 16,9 C 16,8 C 9,4 km/h (2 Bft)
23.08.2007 11:03 18,5 C 94 % 1013,5 hPa 0,0 l/m 9,6 km/h (2 Bft) S-SW 195 0 min 0 W/m 17,5 C 17,1 C 9,6 km/h (2 Bft)
23.08.2007 11:08 18,7 C 94 % 1013,5 hPa 0,0 l/m 10,0 km/h (2 Bft) S-SO 160 0 min 0 W/m 17,7 C 17,2 C 10,0 km/h (2 Bft)
23.08.2007 11:13 19,1 C 94 % 1013,5 hPa 0,0 l/m 5,7 km/h (2 Bft) S-SO 150 0 min 0 W/m 18,1 C 19,1 C 5,7 km/h (2 Bft)
23.08.2007 11:18 19,6 C 93 % 1013,5 hPa 0,0 l/m 6,0 km/h (2 Bft) S 190 0 min 0 W/m 18,4 C 19,6 C 6,0 km/h (2 Bft)
23.08.2007 11:23 19,6 C 93 % 1013,5 hPa 0,0 l/m 5,4 km/h (2 Bft) O 85 0 min 0 W/m 18,4 C 19,6 C 5,4 km/h (2 Bft)
23.08.2007 11:28 20,2 C 92 % 1013,5 hPa 0,0 l/m 6,4 km/h (2 Bft) O 100 0 min 0 W/m 18,9 C 20,2 C 6,4 km/h (2 Bft)
23.08.2007 11:33 20,8 C 91 % 1013,5 hPa 0,0 l/m 9,1 km/h (2 Bft) SO 130 0 min 0 W/m 19,3 C 19,8 C 9,1 km/h (2 Bft)
23.08.2007 11:38 21,3 C 88 % 1013,5 hPa 0,0 l/m 7,4 km/h (2 Bft) S-SO 150 0 min 0 W/m 19,2 C 20,9 C 7,4 km/h (2 Bft)
23.08.2007 11:43 21,3 C 87 % 1013,5 hPa 0,0 l/m 5,9 km/h (2 Bft) SO 140 0 min 0 W/m 19,0 C 21,3 C 5,9 km/h (2 Bft)
23.08.2007 11:48 20,9 C 85 % 1013,5 hPa 0,0 l/m 9,2 km/h (2 Bft) O-NO 70 0 min 0 W/m 18,3 C 19,9 C 9,2 km/h (2 Bft)
23.08.2007 11:53 20,4 C 86 % 1013,5 hPa 0,0 l/m 9,2 km/h (2 Bft) O-NO 70 0 min 0 W/m 18,0 C 19,3 C 9,2 km/h (2 Bft)
23.08.2007 11:58 20,3 C 86 % 1013,5 hPa 0,0 l/m 5,0 km/h (1 Bft) O-SO 115 0 min 0 W/m 17,9 C 20,3 C 5,0 km/h (1 Bft)
23.08.2007 12:03 20,2 C 87 % 1013,5 hPa 0,0 l/m 9,2 km/h (2 Bft) O 90 0 min 0 W/m 18,0 C 19,1 C 9,2 km/h (2 Bft)
23.08.2007 12:08 20,8 C 88 % 1013,5 hPa 0,0 l/m 4,3 km/h (1 Bft) SO 125 0 min 0 W/m 18,7 C 20,8 C 4,3 km/h (1 Bft)
23.08.2007 12:13 21,0 C 87 % 1013,5 hPa 0,0 l/m 6,7 km/h (2 Bft) SO 140 0 min 0 W/m 18,7 C 20,9 C 6,7 km/h (2 Bft)
23.08.2007 12:18 21,5 C 86 % 1013,5 hPa 0,0 l/m 8,7 km/h (2 Bft) O 100 0 min 0 W/m 19,1 C 20,7 C 8,7 km/h (2 Bft)
23.08.2007 12:23 21,6 C 84 % 1013,5 hPa 0,0 l/m 9,5 km/h (2 Bft) SO 130 0 min 0 W/m 18,8 C 20,6 C 9,5 km/h (2 Bft)
23.08.2007 12:28 22,0 C 84 % 1013,5 hPa 0,0 l/m 10,5 km/h (2 Bft) O-SO 120 0 min 0 W/m 19,2 C 20,7 C 10,5 km/h (2 Bft)
23.08.2007 12:33 22,3 C 83 % 1013,5 hPa 0,0 l/m 10,1 km/h (2 Bft) SO 125 0 min 0 W/m 19,3 C 21,2 C 10,1 km/h (2 Bft)
23.08.2007 12:38 22,6 C 81 % 1013,5 hPa 0,0 l/m 6,8 km/h (2 Bft) O-SO 115 0 min 0 W/m 19,2 C 22,5 C 6,8 km/h (2 Bft)
23.08.2007 12:43 22,9 C 80 % 1013,5 hPa 0,0 l/m 7,4 km/h (2 Bft) O 95 0 min 0 W/m 19,3 C 22,6 C 7,4 km/h (2 Bft)
23.08.2007 12:48 23,1 C 81 % 1013,5 hPa 0,0 l/m 8,6 km/h (2 Bft) SO 130 0 min 0 W/m 19,7 C 22,4 C 8,6 km/h (2 Bft)
23.08.2007 12:53 23,1 C 79 % 1013,5 hPa 0,0 l/m 7,5 km/h (2 Bft) O 95 0 min 0 W/m 19,3 C 22,8 C 7,5 km/h (2 Bft)
23.08.2007 12:58 22,7 C 78 % 1013,5 hPa 0,0 l/m 7,0 km/h (2 Bft) O-NO 70 0 min 0 W/m 18,7 C 22,5 C 7,0 km/h (2 Bft)
23.08.2007 13:03 22,5 C 79 % 1013,5 hPa 0,0 l/m 9,1 km/h (2 Bft) O 90 0 min 0 W/m 18,7 C 21,6 C 9,1 km/h (2 Bft)
23.08.2007 13:08 22,3 C 80 % 1013,5 hPa 0,0 l/m 7,6 km/h (2 Bft) SO 125 0 min 0 W/m 18,7 C 21,9 C 7,6 km/h (2 Bft)
23.08.2007 13:13 22,6 C 80 % 1013,5 hPa 0,0 l/m 6,6 km/h (2 Bft) O-NO 75 0 min 0 W/m 19,0 C 22,5 C 6,6 km/h (2 Bft)
23.08.2007 13:18 22,7 C 79 % 1013,5 hPa 0,0 l/m 8,8 km/h (2 Bft) NO 55 0 min 0 W/m 18,9 C 21,9 C 8,8 km/h (2 Bft)
23.08.2007 13:23 23,2 C 79 % 1013,5 hPa 0,0 l/m 10,0 km/h (2 Bft) NO 45 0 min 0 W/m 19,3 C 22,2 C 10,0 km/h (2 Bft)
23.08.2007 13:28 23,9 C 79 % 1013,5 hPa 0,0 l/m 8,6 km/h (2 Bft) SO 125 0 min 0 W/m 20,0 C 23,3 C 8,6 km/h (2 Bft)
23.08.2007 13:33 24,2 C 77 % 1013,5 hPa 0,0 l/m 8,7 km/h (2 Bft) O 90 0 min 0 W/m 19,9 C 23,6 C 8,7 km/h (2 Bft)
23.08.2007 13:38 24,5 C 75 % 1013,5 hPa 0,0 l/m 8,1 km/h (2 Bft) O-SO 115 0 min 0 W/m 19,8 C 24,1 C 8,1 km/h (2 Bft)
23.08.2007 13:43 24,8 C 73 % 1013,5 hPa 0,0 l/m 9,7 km/h (2 Bft) O-NO 75 0 min 0 W/m 19,6 C 24,0 C 9,7 km/h (2 Bft)
23.08.2007 13:48 24,8 C 73 % 1013,5 hPa 0,0 l/m 7,2 km/h (2 Bft) O-NO 70 0 min 0 W/m 19,6 C 24,6 C 7,2 km/h (2 Bft)
23.08.2007 13:53 24,9 C 73 % 1013,5 hPa 0,0 l/m 7,5 km/h (2 Bft) NO 45 0 min 0 W/m 19,7 C 24,6 C 7,5 km/h (2 Bft)
23.08.2007 13:58 24,9 C 72 % 1013,5 hPa 0,0 l/m 9,9 km/h (2 Bft) O-NO 65 0 min 0 W/m 19,5 C 24,1 C 9,9 km/h (2 Bft)
23.08.2007 14:03 24,8 C 72 % 1013,5 hPa 0,0 l/m 9,8 km/h (2 Bft) O-NO 60 0 min 0 W/m 19,4 C 24,0 C 9,8 km/h (2 Bft)
23.08.2007 14:08 24,9 C 72 % 1013,5 hPa 0,0 l/m 8,4 km/h (2 Bft) O-SO 120 0 min 0 W/m 19,5 C 24,4 C 8,4 km/h (2 Bft)
23.08.2007 14:13 24,8 C 72 % 1013,5 hPa 0,0 l/m 7,9 km/h (2 Bft) O-SO 105 0 min 0 W/m 19,4 C 24,4 C 7,9 km/h (2 Bft)
23.08.2007 14:18 24,4 C 72 % 1013,5 hPa 0,0 l/m 7,9 km/h (2 Bft) O-SO 105 0 min 0 W/m 19,0 C 24,0 C 7,9 km/h (2 Bft)
23.08.2007 14:23 24,1 C 72 % 1013,5 hPa 0,0 l/m 8,1 km/h (2 Bft) O-SO 110 0 min 0 W/m 18,7 C 23,6 C 8,1 km/h (2 Bft)
23.08.2007 14:28 23,6 C 74 % 1013,5 hPa 0,0 l/m 6,8 km/h (2 Bft) O-NO 65 0 min 0 W/m 18,7 C 23,5 C 6,8 km/h (2 Bft)
23.08.2007 14:33 23,7 C 75 % 1013,5 hPa 0,0 l/m 6,8 km/h (2 Bft) O-NO 70 0 min 0 W/m 19,0 C 23,6 C 6,8 km/h (2 Bft)
23.08.2007 14:38 23,8 C 74 % 1013,5 hPa 0,0 l/m 4,6 km/h (1 Bft) NO 35 0 min 0 W/m 18,9 C 23,8 C 4,6 km/h (1 Bft)
23.08.2007 14:43 23,8 C 74 % 1013,5 hPa 0,0 l/m 5,1 km/h (1 Bft) O 80 0 min 0 W/m 18,9 C 23,8 C 5,1 km/h (1 Bft)
23.08.2007 14:48 23,7 C 75 % 1013,5 hPa 0,0 l/m 8,0 km/h (2 Bft) O-SO 105 0 min 0 W/m 19,0 C 23,2 C 8,0 km/h (2 Bft)
23.08.2007 14:53 23,8 C 75 % 1013,5 hPa 0,0 l/m 6,8 km/h (2 Bft) O 95 0 min 0 W/m 19,1 C 23,7 C 6,8 km/h (2 Bft)
23.08.2007 14:58 23,9 C 75 % 1013,5 hPa 0,0 l/m 7,6 km/h (2 Bft) O 90 0 min 0 W/m 19,2 C 23,6 C 7,6 km/h (2 Bft)
23.08.2007 15:03 24,1 C 74 % 1013,5 hPa 0,0 l/m 6,8 km/h (2 Bft) O 80 0 min 0 W/m 19,2 C 24,0 C 6,8 km/h (2 Bft)
23.08.2007 15:08 24,4 C 73 % 1013,5 hPa 0,0 l/m 7,2 km/h (2 Bft) NO 55 0 min 0 W/m 19,2 C 24,2 C 7,2 km/h (2 Bft)
23.08.2007 15:13 24,4 C 73 % 1013,5 hPa 0,0 l/m 1,8 km/h (1 Bft) NO 40 0 min 0 W/m 19,2 C 24,4 C 1,8 km/h (1 Bft)
23.08.2007 15:18 24,7 C 73 % 1013,5 hPa 0,0 l/m 5,4 km/h (2 Bft) N-NO 25 0 min 0 W/m 19,5 C 24,7 C 5,4 km/h (2 Bft)
23.08.2007 15:23 24,5 C 71 % 1013,5 hPa 0,0 l/m 10,6 km/h (2 Bft) NO 50 0 min 0 W/m 18,9 C 23,5 C 10,6 km/h (2 Bft)
23.08.2007 15:28 24,5 C 71 % 1013,5 hPa 0,0 l/m 10,4 km/h (2 Bft) NO 40 0 min 0 W/m 18,9 C 23,5 C 10,4 km/h (2 Bft)
23.08.2007 15:33 24,6 C 72 % 1013,5 hPa 0,0 l/m 8,9 km/h (2 Bft) N-NO 15 0 min 0 W/m 19,2 C 24,0 C 8,9 km/h (2 Bft)
23.08.2007 15:38 24,7 C 71 % 1013,5 hPa 0,0 l/m 11,7 km/h (2 Bft) O-NO 60 0 min 0 W/m 19,1 C 23,5 C 11,7 km/h (2 Bft)
23.08.2007 15:43 24,7 C 72 % 1013,5 hPa 0,0 l/m 10,8 km/h (2 Bft) O-NO 60 0 min 0 W/m 19,3 C 23,7 C 10,8 km/h (2 Bft)
23.08.2007 15:48 24,8 C 71 % 1013,5 hPa 0,0 l/m 10,0 km/h (2 Bft) NO 40 0 min 0 W/m 19,2 C 23,9 C 10,0 km/h (2 Bft)
23.08.2007 15:53 25,0 C 71 % 1013,5 hPa 0,0 l/m 7,8 km/h (2 Bft) N-NO 30 0 min 0 W/m 19,4 C 24,6 C 7,8 km/h (2 Bft)
23.08.2007 15:58 25,0 C 70 % 1013,5 hPa 0,0 l/m 11,1 km/h (2 Bft) NO 35 0 min 0 W/m 19,1 C 24,0 C 11,1 km/h (2 Bft)
23.08.2007 16:03 24,9 C 69 % 1013,5 hPa 0,0 l/m 8,1 km/h (2 Bft) NO 50 0 min 0 W/m 18,8 C 24,5 C 8,1 km/h (2 Bft)
23.08.2007 16:08 24,5 C 69 % 1014,5 hPa 0,0 l/m 7,4 km/h (2 Bft) NO 45 0 min 0 W/m 18,4 C 24,2 C 7,4 km/h (2 Bft)
23.08.2007 16:13 24,4 C 69 % 1013,5 hPa 0,0 l/m 9,6 km/h (2 Bft) N-NO 15 0 min 0 W/m 18,3 C 23,6 C 9,6 km/h (2 Bft)
23.08.2007 16:18 24,2 C 70 % 1013,5 hPa 0,0 l/m 9,6 km/h (2 Bft) N-NO 15 0 min 0 W/m 18,4 C 23,4 C 9,6 km/h (2 Bft)
23.08.2007 16:23 24,0 C 71 % 1013,5 hPa 0,0 l/m 11,8 km/h (2 Bft) N-NO 25 0 min 0 W/m 18,4 C 22,7 C 11,8 km/h (2 Bft)
23.08.2007 16:28 23,6 C 72 % 1013,5 hPa 0,0 l/m 9,9 km/h (2 Bft) N-NO 20 0 min 0 W/m 18,2 C 22,6 C 9,9 km/h (2 Bft)
23.08.2007 16:33 23,3 C 73 % 1013,5 hPa 0,0 l/m 4,1 km/h (1 Bft) N-NO 20 0 min 0 W/m 18,2 C 23,3 C 4,1 km/h (1 Bft)
23.08.2007 16:38 23,2 C 73 % 1013,5 hPa 0,0 l/m 0,1 km/h (0 Bft) NO 35 0 min 0 W/m 18,1 C 23,2 C 0,1 km/h (0 Bft)
23.08.2007 16:43 23,0 C 73 % 1013,5 hPa 0,0 l/m 0,8 km/h (0 Bft) N-NO 25 0 min 0 W/m 17,9 C 23,0 C 0,8 km/h (0 Bft)
23.08.2007 16:48 22,6 C 75 % 1013,5 hPa 0,0 l/m 0,3 km/h (0 Bft) NO 50 0 min 0 W/m 17,9 C 22,6 C 0,3 km/h (0 Bft)
23.08.2007 16:53 22,5 C 75 % 1014,5 hPa 0,0 l/m 0,5 km/h (0 Bft) N 360 0 min 0 W/m 17,8 C 22,5 C 0,5 km/h (0 Bft)
23.08.2007 16:58 22,2 C 76 % 1014,5 hPa 0,0 l/m 5,6 km/h (2 Bft) N-NO 25 0 min 0 W/m 17,8 C 22,2 C 5,6 km/h (2 Bft)
23.08.2007 17:03 22,0 C 77 % 1014,5 hPa 0,0 l/m 6,8 km/h (2 Bft) N-NO 15 0 min 0 W/m 17,8 C 21,9 C 6,8 km/h (2 Bft)
23.08.2007 17:08 21,9 C 77 % 1014,5 hPa 0,0 l/m 0,3 km/h (0 Bft) N 350 0 min 0 W/m 17,7 C 21,9 C 0,3 km/h (0 Bft)
23.08.2007 17:13 21,9 C 78 % 1014,5 hPa 0,0 l/m 0,8 km/h (0 Bft) N-NW 345 0 min 0 W/m 17,9 C 21,9 C 0,8 km/h (0 Bft)
23.08.2007 17:18 21,8 C 79 % 1014,5 hPa 0,0 l/m 6,6 km/h (2 Bft) N 360 0 min 0 W/m 18,0 C 21,7 C 6,6 km/h (2 Bft)
23.08.2007 17:23 21,8 C 79 % 1014,5 hPa 0,0 l/m 7,9 km/h (2 Bft) N 350 0 min 0 W/m 18,0 C 21,3 C 7,9 km/h (2 Bft)
23.08.2007 17:28 21,9 C 81 % 1014,5 hPa 0,3 l/m 4,6 km/h (1 Bft) NW 310 0 min 0 W/m 18,5 C 21,9 C 4,6 km/h (1 Bft)
23.08.2007 17:33 21,9 C 83 % 1014,5 hPa 0,3 l/m 7,0 km/h (2 Bft) W-NW 295 0 min 0 W/m 18,9 C 21,7 C 7,0 km/h (2 Bft)
23.08.2007 17:38 21,8 C 83 % 1014,5 hPa 0,6 l/m 4,5 km/h (1 Bft) NW 305 0 min 0 W/m 18,8 C 21,8 C 4,5 km/h (1 Bft)
23.08.2007 17:43 21,7 C 83 % 1014,5 hPa 0,0 l/m 3,4 km/h (1 Bft) W 270 0 min 0 W/m 18,7 C 21,7 C 3,4 km/h (1 Bft)
23.08.2007 17:48 21,6 C 84 % 1014,5 hPa 0,0 l/m 0,0 km/h (0 Bft) W 260 0 min 0 W/m 18,8 C 21,6 C 0,0 km/h (0 Bft)
23.08.2007 17:53 21,6 C 85 % 1014,5 hPa 0,0 l/m 0,4 km/h (0 Bft) SW 235 0 min 0 W/m 19,0 C 21,6 C 0,4 km/h (0 Bft)
23.08.2007 17:58 21,6 C 86 % 1014,5 hPa 0,0 l/m 3,9 km/h (1 Bft) S-SW 205 0 min 0 W/m 19,2 C 21,6 C 3,9 km/h (1 Bft)
23.08.2007 18:03 21,6 C 86 % 1014,5 hPa 0,0 l/m 0,0 km/h (0 Bft) S-SW 210 0 min 0 W/m 19,2 C 21,6 C 0,0 km/h (0 Bft)
23.08.2007 18:08 21,8 C 86 % 1014,5 hPa 0,0 l/m 0,0 km/h (0 Bft) S-SW 205 0 min 0 W/m 19,3 C 21,8 C 0,0 km/h (0 Bft)
23.08.2007 18:13 21,8 C 86 % 1014,5 hPa 0,0 l/m 1,4 km/h (1 Bft) S 190 0 min 0 W/m 19,3 C 21,8 C 1,4 km/h (1 Bft)
23.08.2007 18:18 21,8 C 86 % 1014,5 hPa 0,0 l/m 3,7 km/h (1 Bft) O 90 0 min 0 W/m 19,3 C 21,8 C 3,7 km/h (1 Bft)
23.08.2007 18:23 21,8 C 86 % 1014,5 hPa 0,0 l/m 6,7 km/h (2 Bft) NO 35 0 min 0 W/m 19,3 C 21,7 C 6,7 km/h (2 Bft)
23.08.2007 18:28 21,6 C 86 % 1014,5 hPa 0,0 l/m 4,9 km/h (1 Bft) N-NO 25 0 min 0 W/m 19,2 C 21,6 C 4,9 km/h (1 Bft)
23.08.2007 18:33 21,4 C 86 % 1014,5 hPa 0,0 l/m 3,6 km/h (1 Bft) N 360 0 min 0 W/m 19,0 C 21,4 C 3,6 km/h (1 Bft)
23.08.2007 18:38 21,2 C 87 % 1014,5 hPa 0,0 l/m 1,5 km/h (1 Bft) N-NO 15 0 min 0 W/m 18,9 C 21,2 C 1,5 km/h (1 Bft)
23.08.2007 18:43 21,1 C 87 % 1014,5 hPa 0,0 l/m 1,1 km/h (1 Bft) N-NO 25 0 min 0 W/m 18,8 C 21,1 C 1,1 km/h (1 Bft)
23.08.2007 18:48 21,0 C 87 % 1014,5 hPa 0,0 l/m 0,7 km/h (0 Bft) N-NO 25 0 min 0 W/m 18,7 C 21,0 C 0,7 km/h (0 Bft)
23.08.2007 18:53 20,9 C 88 % 1014,5 hPa 0,0 l/m 4,5 km/h (1 Bft) N 5 0 min 0 W/m 18,8 C 20,9 C 4,5 km/h (1 Bft)
23.08.2007 18:58 20,7 C 87 % 1014,5 hPa 0,0 l/m 7,4 km/h (2 Bft) N-NO 30 0 min 0 W/m 18,5 C 20,3 C 7,4 km/h (2 Bft)
23.08.2007 19:03 20,7 C 87 % 1014,5 hPa 0,0 l/m 9,4 km/h (2 Bft) N-NO 25 0 min 0 W/m 18,5 C 19,6 C 9,4 km/h (2 Bft)
23.08.2007 19:08 20,5 C 88 % 1014,5 hPa 0,0 l/m 7,9 km/h (2 Bft) N-NO 25 0 min 0 W/m 18,4 C 19,9 C 7,9 km/h (2 Bft)
23.08.2007 19:13 20,4 C 88 % 1014,5 hPa 0,0 l/m 5,4 km/h (2 Bft) N 10 0 min 0 W/m 18,3 C 20,4 C 5,4 km/h (2 Bft)
23.08.2007 19:18 20,4 C 88 % 1014,5 hPa 0,0 l/m 5,8 km/h (2 Bft) N 10 0 min 0 W/m 18,3 C 20,4 C 5,8 km/h (2 Bft)
23.08.2007 19:22 20,4 C 89 % 1014,5 hPa 0,0 l/m 8,4 km/h (2 Bft) N 5 0 min 0 W/m 18,5 C 19,6 C 8,4 km/h (2 Bft)
23.08.2007 19:28 20,3 C 89 % 1014,5 hPa 0,0 l/m 11,4 km/h (2 Bft) N-NO 15 0 min 0 W/m 18,4 C 18,5 C 11,4 km/h (2 Bft)
23.08.2007 19:33 20,2 C 89 % 1014,5 hPa 0,0 l/m 10,4 km/h (2 Bft) N-NO 20 0 min 0 W/m 18,3 C 18,7 C 10,4 km/h (2 Bft)
23.08.2007 19:38 20,2 C 89 % 1014,5 hPa 0,0 l/m 11,2 km/h (2 Bft) N 5 0 min 0 W/m 18,3 C 18,5 C 11,2 km/h (2 Bft)
23.08.2007 19:43 20,1 C 90 % 1014,5 hPa 0,0 l/m 11,0 km/h (2 Bft) N-NO 15 0 min 0 W/m 18,4 C 18,4 C 11,0 km/h (2 Bft)
23.08.2007 19:48 20,1 C 90 % 1014,5 hPa 0,0 l/m 4,5 km/h (1 Bft) N-NO 15 0 min 0 W/m 18,4 C 20,1 C 4,5 km/h (1 Bft)
23.08.2007 19:53 20,1 C 90 % 1014,5 hPa 0,0 l/m 10,0 km/h (2 Bft) N-NO 15 0 min 0 W/m 18,4 C 18,8 C 10,0 km/h (2 Bft)
23.08.2007 19:58 20,1 C 90 % 1014,5 hPa 0,0 l/m 7,4 km/h (2 Bft) N 5 0 min 0 W/m 18,4 C 19,7 C 7,4 km/h (2 Bft)
23.08.2007 20:03 20,0 C 90 % 1014,5 hPa 0,0 l/m 5,1 km/h (1 Bft) N 5 0 min 0 W/m 18,3 C 20,0 C 5,1 km/h (1 Bft)
23.08.2007 20:08 20,0 C 90 % 1014,5 hPa 0,0 l/m 6,9 km/h (2 Bft) N-NO 15 0 min 0 W/m 18,3 C 19,8 C 6,9 km/h (2 Bft)
23.08.2007 20:13 19,9 C 90 % 1014,5 hPa 0,0 l/m 5,3 km/h (1 Bft) N-NO 15 0 min 0 W/m 18,2 C 19,9 C 5,3 km/h (1 Bft)
23.08.2007 20:18 19,8 C 90 % 1014,5 hPa 0,0 l/m 7,3 km/h (2 Bft) N-NO 20 0 min 0 W/m 18,1 C 19,4 C 7,3 km/h (2 Bft)
23.08.2007 20:23 19,8 C 91 % 1014,5 hPa 0,0 l/m 6,8 km/h (2 Bft) N-NO 15 0 min 0 W/m 18,3 C 19,6 C 6,8 km/h (2 Bft)
23.08.2007 20:28 19,6 C 91 % 1014,5 hPa 0,0 l/m 0,9 km/h (0 Bft) N-NO 20 0 min 0 W/m 18,1 C 19,6 C 0,9 km/h (0 Bft)
23.08.2007 20:33 19,5 C 91 % 1014,5 hPa 0,0 l/m 1,0 km/h (0 Bft) N 5 0 min 0 W/m 18,0 C 19,5 C 1,0 km/h (0 Bft)
23.08.2007 20:38 19,4 C 91 % 1014,5 hPa 0,0 l/m 0,4 km/h (0 Bft) N-NO 30 0 min 0 W/m 17,9 C 19,4 C 0,4 km/h (0 Bft)
23.08.2007 20:43 19,3 C 90 % 1014,5 hPa 0,0 l/m 5,1 km/h (1 Bft) N 5 0 min 0 W/m 17,6 C 19,3 C 5,1 km/h (1 Bft)
23.08.2007 20:48 19,2 C 90 % 1015,5 hPa 0,0 l/m 0,7 km/h (0 Bft) N-NO 20 0 min 0 W/m 17,5 C 19,2 C 0,7 km/h (0 Bft)
23.08.2007 20:53 19,1 C 91 % 1015,5 hPa 0,0 l/m 3,9 km/h (1 Bft) N-NO 25 0 min 0 W/m 17,6 C 19,1 C 3,9 km/h (1 Bft)
23.08.2007 20:58 19,0 C 91 % 1015,5 hPa 0,0 l/m 3,7 km/h (1 Bft) N-NO 15 0 min 0 W/m 17,5 C 19,0 C 3,7 km/h (1 Bft)
23.08.2007 21:03 19,0 C 91 % 1015,5 hPa 0,0 l/m 6,3 km/h (2 Bft) N 10 0 min 0 W/m 17,5 C 19,0 C 6,3 km/h (2 Bft)
23.08.2007 21:08 18,9 C 91 % 1015,5 hPa 0,0 l/m 0,2 km/h (0 Bft) N 360 0 min 0 W/m 17,4 C 18,9 C 0,2 km/h (0 Bft)
23.08.2007 21:13 18,8 C 91 % 1015,5 hPa 0,0 l/m 0,4 km/h (0 Bft) N 360 0 min 0 W/m 17,3 C 18,8 C 0,4 km/h (0 Bft)
23.08.2007 21:18 18,8 C 91 % 1015,5 hPa 0,0 l/m 5,4 km/h (2 Bft) N 355 0 min 0 W/m 17,3 C 18,8 C 5,4 km/h (2 Bft)
23.08.2007 21:23 18,7 C 91 % 1015,5 hPa 0,0 l/m 0,1 km/h (0 Bft) N 5 0 min 0 W/m 17,2 C 18,7 C 0,1 km/h (0 Bft)
23.08.2007 21:28 18,7 C 92 % 1015,5 hPa 0,0 l/m 0,5 km/h (0 Bft) N 360 0 min 0 W/m 17,4 C 18,7 C 0,5 km/h (0 Bft)
23.08.2007 21:33 18,6 C 92 % 1015,5 hPa 0,0 l/m 8,1 km/h (2 Bft) N 5 0 min 0 W/m 17,3 C 17,8 C 8,1 km/h (2 Bft)
23.08.2007 21:38 18,6 C 92 % 1015,5 hPa 0,0 l/m 0,3 km/h (0 Bft) N 10 0 min 0 W/m 17,3 C 18,6 C 0,3 km/h (0 Bft)
23.08.2007 21:43 18,6 C 92 % 1015,5 hPa 0,0 l/m 0,6 km/h (0 Bft) N-NO 25 0 min 0 W/m 17,3 C 18,6 C 0,6 km/h (0 Bft)
23.08.2007 21:48 18,5 C 92 % 1015,5 hPa 0,0 l/m 0,1 km/h (0 Bft) N 360 0 min 0 W/m 17,2 C 18,5 C 0,1 km/h (0 Bft)
23.08.2007 21:53 18,5 C 92 % 1015,5 hPa 0,0 l/m 3,4 km/h (1 Bft) N 360 0 min 0 W/m 17,2 C 18,5 C 3,4 km/h (1 Bft)
23.08.2007 21:58 18,4 C 92 % 1015,5 hPa 0,0 l/m 0,4 km/h (0 Bft) N 360 0 min 0 W/m 17,1 C 18,4 C 0,4 km/h (0 Bft)
23.08.2007 22:04 18,5 C 93 % 1015,5 hPa 0,0 l/m 8,7 km/h (2 Bft) N 10 0 min 0 W/m 17,3 C 17,5 C 8,7 km/h (2 Bft)
23.08.2007 22:09 18,5 C 93 % 1015,5 hPa 0,0 l/m 3,6 km/h (1 Bft) N 360 0 min 0 W/m 17,3 C 18,5 C 3,6 km/h (1 Bft)
23.08.2007 22:14 18,5 C 93 % 1015,5 hPa 0,0 l/m 3,3 km/h (1 Bft) N-NO 25 0 min 0 W/m 17,3 C 18,5 C 3,3 km/h (1 Bft)
23.08.2007 22:19 18,5 C 93 % 1015,5 hPa 0,0 l/m 0,0 km/h (0 Bft) N-NO 25 0 min 0 W/m 17,3 C 18,5 C 0,0 km/h (0 Bft)
23.08.2007 22:24 18,4 C 93 % 1015,5 hPa 0,0 l/m 0,1 km/h (0 Bft) N 10 0 min 0 W/m 17,2 C 18,4 C 0,1 km/h (0 Bft)
23.08.2007 22:29 18,2 C 93 % 1015,5 hPa 0,0 l/m 3,8 km/h (1 Bft) N 10 0 min 0 W/m 17,0 C 18,2 C 3,8 km/h (1 Bft)
23.08.2007 22:34 18,2 C 93 % 1015,5 hPa 0,0 l/m 6,1 km/h (2 Bft) N-NO 20 0 min 0 W/m 17,0 C 18,2 C 6,1 km/h (2 Bft)
23.08.2007 22:39 18,2 C 93 % 1015,5 hPa 0,0 l/m 5,2 km/h (1 Bft) N-NO 20 0 min 0 W/m 17,0 C 18,2 C 5,2 km/h (1 Bft)
23.08.2007 22:44 18,2 C 93 % 1015,5 hPa 0,0 l/m 10,3 km/h (2 Bft) N-NO 15 0 min 0 W/m 17,0 C 16,5 C 10,3 km/h (2 Bft)
23.08.2007 22:49 18,5 C 94 % 1015,5 hPa 0,0 l/m 10,1 km/h (2 Bft) N-NO 15 0 min 0 W/m 17,5 C 16,9 C 10,1 km/h (2 Bft)
23.08.2007 22:54 18,5 C 94 % 1015,5 hPa 0,0 l/m 7,2 km/h (2 Bft) N 5 0 min 0 W/m 17,5 C 18,1 C 7,2 km/h (2 Bft)
23.08.2007 22:59 18,5 C 94 % 1015,5 hPa 0,0 l/m 0,9 km/h (0 Bft) N-NO 25 0 min 0 W/m 17,5 C 18,5 C 0,9 km/h (0 Bft)
23.08.2007 23:04 18,4 C 94 % 1016,5 hPa 0,0 l/m 7,2 km/h (2 Bft) N-NO 30 0 min 0 W/m 17,4 C 18,0 C 7,2 km/h (2 Bft)
23.08.2007 23:09 18,4 C 94 % 1015,5 hPa 0,0 l/m 7,5 km/h (2 Bft) N 5 0 min 0 W/m 17,4 C 17,9 C 7,5 km/h (2 Bft)
23.08.2007 23:14 18,5 C 95 % 1016,5 hPa 0,0 l/m 6,5 km/h (2 Bft) N-NO 15 0 min 0 W/m 17,7 C 18,5 C 6,5 km/h (2 Bft)
23.08.2007 23:19 18,6 C 95 % 1016,5 hPa 0,0 l/m 10,5 km/h (2 Bft) N-NO 25 0 min 0 W/m 17,8 C 16,9 C 10,5 km/h (2 Bft)
23.08.2007 23:24 18,6 C 95 % 1016,5 hPa 0,0 l/m 10,0 km/h (2 Bft) N 10 0 min 0 W/m 17,8 C 17,1 C 10,0 km/h (2 Bft)
23.08.2007 23:29 18,7 C 95 % 1016,5 hPa 0,0 l/m 10,9 km/h (2 Bft) N-NO 15 0 min 0 W/m 17,9 C 16,9 C 10,9 km/h (2 Bft)
23.08.2007 23:34 18,8 C 95 % 1016,5 hPa 0,0 l/m 14,5 km/h (3 Bft) N-NO 20 0 min 0 W/m 18,0 C 15,9 C 14,5 km/h (3 Bft)
23.08.2007 23:39 18,7 C 95 % 1016,5 hPa 0,0 l/m 6,0 km/h (2 Bft) N-NO 15 0 min 0 W/m 17,9 C 18,7 C 6,0 km/h (2 Bft)
23.08.2007 23:44 18,7 C 95 % 1016,5 hPa 0,0 l/m 8,7 km/h (2 Bft) NO 35 0 min 0 W/m 17,9 C 17,7 C 8,7 km/h (2 Bft)
23.08.2007 23:49 18,6 C 95 % 1016,5 hPa 0,0 l/m 10,0 km/h (2 Bft) N-NO 20 0 min 0 W/m 17,8 C 17,1 C 10,0 km/h (2 Bft)
23.08.2007 23:54 18,6 C 95 % 1016,5 hPa 0,0 l/m 8,7 km/h (2 Bft) N-NO 25 0 min 0 W/m 17,8 C 17,6 C 8,7 km/h (2 Bft)
23.08.2007 23:59 18,5 C 95 % 1016,5 hPa 0,0 l/m 10,4 km/h (2 Bft) N-NO 25 0 min 0 W/m 17,7 C 16,8 C 10,4 km/h (2 Bft)
_ Min-Zeit 04:38 16:03 00:03 - 00:18 - - - - 04:38 03:58 00:18
Minimum _ 15,8 C 69 % 1010,5 hPa - 0,0 km/h (0 Bft) - - - - 15,2 C 13,7 C 0,0 km/h (0 Bft)
_ Max-Zeit 15:53 05:43 23:04 17:38 23:34 - - 00:03 00:03 13:28 15:18 23:34
Maximum _ 25,0 C 97 % 1016,5 hPa 0,6 l/m 14,5 km/h
N-NO (3 Bft)
- - 0 min 0 W/m 20,0 C 24,7 C 14,5 km/h
N-NO (3 Bft)
Durchschnitt _ 19,2 C 90 % 1013,1 hPa #1,2 l/m 5,9 km/h (2 Bft) SO - #0 min. 0 W/m 17,3 C 18,7 C 5,9 km/h (2 Bft)
copyright by Holger Just